Location: UBC Liquid-Mirror Observatory
(49.2876°N, 122.5728°W)
Time: 09:05:02
(UTC-07:00)

Daily predictions for brighter satellites

Satellite Brightness Start Highest point End
(mag) Time Altitude Azimuth Time Altitude Azimuth Time Altitude Azimuth
CZ-3B DEB 4.4 21:43:56 10° W 21:54:13 67° N 22:07:08 10° E
Cosmos 2228 Rocket 3.2 21:57:02 10° N 22:01:39 76° E 22:06:13 10° SSE
MetOp-B 4.2 21:56:50 10° SSE 22:02:12 88° WSW 22:07:36 10° NNW
YAOGAN 11 4.3 21:58:27 10° SSE 22:02:58 72° ENE 22:07:33 10° N
NOAA 11 4.4 21:58:33 10° S 22:03:58 75° WSW 22:09:27 10° NNW
Cosmos 1486 Rocket 4.3 21:59:40 10° S 22:04:44 49° ESE 22:09:52 10° NNE
CZ-4C R/B 3.9 22:03:51 10° SE 22:05:55 12° ESE 22:08:04 10° E
Cosmos 2233 Rocket 4.3 22:00:20 10° N 22:06:28 55° ENE 22:12:29 10° SSE
Cosmos 1300 3.1 22:12:57 10° NNW 22:16:46 63° W 22:20:32 10° S
Cosmos 2151 3.4 22:13:44 10° SSE 22:17:50 45° E 22:21:58 10° NNE
CZ-3A R/B -0.6 22:18:57 10° NW 22:19:58 37° NNE 22:20:52 13° E
Cosmos 371 Rocket 4.2 22:15:51 10° NNW 22:20:28 46° WSW 22:25:05 10° S
USA 234 4.0 22:17:16 10° ENE 22:22:54 30° SE 22:28:29 10° S
ATLAS 5 CENTAUR R/B 3.6 22:19:53 10° WSW 22:24:26 38° NNW 22:29:28 10° NE
Cosmos 2263 Rocket 2.3 22:21:07 10° S 22:26:31 55° ESE 22:31:59 10° NE
SPOT 1/Viking Rocket 3.6 22:23:44 10° SSE 22:28:53 89° ENE 22:34:05 10° NNW
ERS-1 Rocket 4.1 22:24:17 10° SSW 22:29:00 41° W 22:33:47 10° NNW
Meteor 1-11 4.4 22:24:34 10° S 22:30:18 66° E 22:36:04 10° NNE
Tiangong 1 3.2 22:36:56 10° SW 22:37:54 11° SSW 22:38:44 10° S
Abrixas 2.9 22:35:30 10° SW 22:37:58 32° SSE 22:40:28 10° E
SL-08 RB Rocket 4.2 22:36:34 10° S 22:41:06 58° W 22:45:42 10° NNW
Cosmos 540 Rocket 3.5 22:36:00 10° NNW 22:41:12 83° ENE 22:45:43 13° SSE
Meteor 1-27 4.4 22:36:44 10° NNW 22:42:34 77° W 22:48:17 10° S
SL-14 R/B 4.2 22:40:58 10° SSW 22:44:48 50° WNW 22:48:38 10° N
Cosmos 2123 Rocket 4.4 22:39:51 10° SSW 22:45:59 66° WNW 22:52:13 10° N
COSMOS 2406 3.9 22:42:37 10° NNW 22:48:08 47° NE 22:53:07 12° SE
Cosmos 1455 2.2 22:45:20 10° N 22:49:13 70° E 22:52:14 16° SSE
IGS 5A 3.6 22:46:36 15° SSE 22:50:01 66° ENE 22:54:11 10° N
Cosmos 1500 Rocket 3.8 22:45:36 10° SSW 22:50:03 74° W 22:54:31 10° N
Cosmos 1503 Rocket 4.0 22:46:22 10° S 22:51:29 64° ESE 22:56:36 10° NNE
Lacrosse 5 4.2 22:52:01 10° W 22:53:49 12° WSW 22:55:37 10° SW
Cosmos 2084 Rocket 3.2 22:52:19 10° NW 22:56:08 78° NE 22:59:02 17° SE
ARGOS 4.3 22:52:10 10° SSW 22:57:14 39° W 23:02:19 10° NNW
SPOT 5 4.1 22:52:58 10° SSW 22:57:38 40° W 23:02:34 10° NNW
Cosmos 1844 Rocket 3.9 22:55:53 15° SE 22:58:59 24° ESE 23:03:23 10° NE
PSLV R/B 3.8 22:57:38 19° SE 22:59:15 38° ENE 23:01:56 10° N
CARTOSAT-1 3.5 22:57:28 15° SSE 23:00:59 89° NE 23:05:19 10° NNW
Landsat 7 4.1 22:57:16 12° S 23:01:35 67° WSW 23:06:21 10° NNW
Cosmos 1151 Rocket 4.0 22:57:33 10° NNW 23:01:44 43° W 23:05:51 10° SSW
Cosmos 2285 Rocket 4.3 22:58:53 10° NNW 23:05:11 66° WSW 23:10:39 14° S
Cosmos 2034 Rocket 4.4 22:59:51 10° N 23:06:05 54° ENE 23:10:55 17° SSE
Cosmos 1805 Rocket 3.6 23:06:24 16° S 23:09:42 59° E 23:13:59 10° NNE
Cosmos 2058 3.5 23:06:52 10° SSW 23:11:01 58° WNW 23:15:12 10° N
Cosmos 1633 Rocket 3.8 23:10:01 19° SSE 23:12:33 36° E 23:16:34 10° NNE
H-2A R/B 3.1 23:07:47 10° S 23:12:53 43° W 23:18:07 10° NNW
Terra 2.0 23:12:41 16° S 23:16:30 68° WSW 23:21:17 10° NNW
Meteor 2-10 Rocket 4.4 23:15:56 10° N 23:21:02 41° ENE 23:24:54 17° SE
H-2A R/B 2.1 23:18:39 19° S 23:21:41 74° WSW 23:25:54 10° NNW
SL-19 R/B 4.4 23:20:23 24° SE 23:21:44 41° ENE 23:24:41 10° N
CZ-2C R/B 4.2 23:20:13 10° NE 23:24:01 20° E 23:26:25 15° ESE
Cosmos 1869 3.2 23:24:16 10° N 23:28:14 84° W 23:30:37 23° S
Cosmos 1464 Rocket 4.0 23:23:50 10° N 23:30:02 82° W 23:34:51 18° S
Cosmos 1626 3.5 23:27:15 10° SW 23:30:44 37° WNW 23:34:15 10° N
SL-24 R/B 4.5 23:28:24 23° SSE 23:30:59 85° ENE 23:35:21 10° NNW
CZ-4 R/B 3.8 23:26:39 10° NNE 23:31:30 68° ESE 23:34:54 19° S
Cosmos 1933 4.0 23:33:04 10° N 23:37:01 44° ENE 23:39:08 24° SE
Cosmos 1538 Rocket 4.1 23:33:34 10° NNW 23:38:59 75° ENE 23:42:30 22° SSE
Cosmos 1400 Rocket 3.4 23:44:15 26° SSE 23:46:07 45° E 23:50:06 10° NNE
Cosmos 1315 Rocket 4.2 23:45:13 20° ESE 23:46:28 24° E 23:49:40 10° NE
Cosmos 1470 Rocket 4.2 23:44:37 25° SSE 23:46:44 42° E 23:50:57 10° NNE
SME Rocket 3.3 23:47:10 25° S 23:49:33 75° WSW 23:54:57 10° NNW
ARGOS Delta rocket 4.3 23:45:41 10° NNE 23:50:50 52° E 23:53:35 25° SSE
CZ-4C R/B 3.6 23:48:38 25° S 23:51:07 78° WSW 23:55:36 10° NNW
BREEZE-M DEB 4.3 23:39:55 10° SW 23:52:03 45° SSE 23:55:42 10° E
CZ-4C R/B 2.2 23:47:46 10° SSW 23:53:04 70° SE 23:59:11 10° NE
Cosmos 1833 Rocket 4.2 23:48:34 10° NNW 23:53:31 30° NE 23:58:28 10° ESE
